This is the latest recevied weather packets stored in our database for station/object KJ7IVE-13. If no packets are shown the sender has not sent any weather packets the latest 10 day(s).
| Time | Temp. | Humidity | Pressure | Rain* | Wind** | Luminosity | Snow |
|---|---|---|---|---|---|---|---|
| 1777898274 | 11.11° C | 10% | 1011 hPa | 0 mm | - | 7 W/m² | - |
| 1777897972 | 11.11° C | 10% | 1011.3 hPa | 0 mm | - | 5 W/m² | - |
| 1777897668 | 11.11° C | 10% | 1011 hPa | 0 mm | - | 3 W/m² | - |
| 1777897364 | 11.11° C | 10% | 1010.9 hPa | 0 mm | - | 2 W/m² | - |
| 1777897060 | 11.11° C | 10% | 1010.9 hPa | 0 mm | - | 0 W/m² | - |
| 1777896757 | 11.11° C | 10% | 1011.3 hPa | 0 mm | - | 0 W/m² | - |
| 1777896455 | 11.11° C | 10% | 1011.1 hPa | 0 mm | - | 0 W/m² | - |
| 1777896152 | 11.67° C | 10% | 1011.3 hPa | 0 mm | - | 0 W/m² | - |
| 1777895850 | 11.67° C | 10% | 1011.4 hPa | 0 mm | - | 0 W/m² | - |
| 1777895546 | 11.67° C | 10% | 1011.1 hPa | 0 mm | - | 0 W/m² | - |
| 1777895244 | 12.22° C | 10% | 1011.3 hPa | 0 mm | - | 0 W/m² | - |
| 1777894639 | 13.33° C | 10% | 1011.4 hPa | 0 mm | - | 0 W/m² | - |
| 1777894335 | 13.89° C | 10% | 1011.1 hPa | 0 mm | - | 0 W/m² | - |
| 1777894033 | 13.89° C | 10% | 1011.3 hPa | 0 mm | - | 0 W/m² | - |
| 1777893729 | 13.33° C | 10% | 1011.3 hPa | 0 mm | - | 0 W/m² | - |
| 1777893426 | 14.44° C | 10% | 1011.3 hPa | 0 mm | - | 0 W/m² | - |
| 1777893123 | 14.44° C | 10% | 1011.1 hPa | 0 mm | - | 0 W/m² | - |
| 1777892819 | 14.44° C | 10% | 1011.3 hPa | 0 mm | - | 0 W/m² | - |
| 1777892515 | 14.44° C | 10% | 1011.5 hPa | 0 mm | - | 0 W/m² | - |
| 1777892211 | 13.89° C | 10% | 1011.3 hPa | 0 mm | - | 0 W/m² | - |
| 1777890387 | 14.44° C | 10% | 1011.4 hPa | 0 mm | - | 0 W/m² | - |
| 1777890082 | 14.44° C | 10% | 1011.1 hPa | 0 mm | - | 0 W/m² | - |
| 1777889780 | 13.89° C | 10% | 1010.9 hPa | 0 mm | - | 0 W/m² | - |
| 1777889478 | 13.89° C | 10% | 1010.9 hPa | 0 mm | - | 0 W/m² | - |
| 1777889175 | 13.89° C | 10% | 1011 hPa | 0 mm | - | 0 W/m² | - |
* Rain latest hour (hover to see other rain measurements)
** Current wind speed in m/s (hover to see current wind gust speed)